Voltar ao catálogo

TEMPSAT 2

AtivoCiênciaLEO
NORAD 4168·PAYLOAD·🇺🇸 United States

Lançado Sep 30, 1969 de Vandenberg Space Force Base

Loading…

Próximas Passagens (próximas 24 horas)

TLE

AtualizadoSource: Space-Track

Época: Sep 14, 2026, 11:42 UTC

1 04168U 69082H   26257.48814021 -.00000012  00000-0  29559-4 0  9992
2 04168  70.0119 267.2146 0019774   1.5526 358.5638 13.96025051900553

Acompanhe TEMPSAT 2 em tempo real com AllMySat

Download on the App Store